Weather in Al Buraimi

Oman     24°15′32″N   55°47′01″E
temp.,
°C
wind,
m/s
gust,
m/s
humid.,
%
clouds,
%
prec.,
mm/h
press.,
hPa
HPBL,
m
3 august, tue
tue301:00+34nne45268 0.0 99860
04:00+35e33189 0.0 99821
07:00+35se44185 0.0 100064
10:00+41s42144 0.0 1001961
13:00+44w3493 0.0 9992570
16:00+45wnw5581 0.0 9973783
19:00+40nnw79172 0.0 1000445
22:00+36n45230 0.0 100171
4 august, wed
wed401:00+35nne22230 0.0 100012
04:00+34ne22200 0.0 100011
07:00+35sse22180 0.0 100237
10:00+40s54180 0.0 10021002
13:00+44w45100 0.0 10003384
16:00+45wnw6580 0.0 9994158
19:00+40nw710120 0.0 1000323
22:00+35n34260 0.0 100271
5 august, thu
thu501:00+34ese22276 0.0 100013
04:00+32se0124100 0.0 99911
07:00+35n1120100 0.0 100111
10:00+40wnw221170 0.0 1001845
13:00+44wsw5470 0.0 9993084
16:00+44w43799 0.0 9984036
19:00+40nw681289 0.0 998213
22:00+37ne2217100 0.0 100022
6 august, fri
fri601:00+36ese22176 0.0 99812
04:00+35sse23183 0.0 99812
07:00+36ese22140 0.0 99913
10:00+43s7780 0.0 10001372
13:00+45ssw6670 0.0 9982939
16:00+45sw66888 0.0 9964109
19:00+41ssw1211100 0.0 99735
22:00+38nne33172 0.0 99925
7 august, sat
sat701:00+37e331399 0.0 99714
04:00+36ese2213100 0.0 99711
07:00+37sse45123 0.0 99972
10:00+44s4493 0.0 10001506
13:00+47sw6685 0.0 9984445
16:00+47wsw67863 0.0 9965170
19:00+42ne57105 0.0 997289
22:00+38ne22135 0.0 100022